Home > Weather > Kingston > Past weeks

Flag for Norfolk Island Past Weather in Kingston, Norfolk Island — Yesterday and Last 2 Weeks

Now
68 °F

Passing clouds.


Feels Like: 68 °F
Forecast: 62 / 70 °F
Wind: 18 mph from West

Location: Norfolk Island Airport

Current Time: Jul 23, 2016 at 8:28:50 PM

Latest Report: Jul 23, 2016 at 8:00 PM


Visibility: N/A

Pressure: 29.92 "Hg

Humidity: 64%

Dew Point: 55 °F

Location of KingstonLocation

Past Weather in Kingston — Graph

°F

Kingston Temperature Yesterday

Maximum temperature yesterday: 70 °F (at 12:00 PM)
Minimum temperature yesterday: 63 °F (at 12:00 AM)
Average temperature yesterday: 66 °F

High & Low Weather Summary for the Past Weeks

 TemperatureHumidityPressure
High70 °F (Jul 22, 12:00 PM)94% (Jul 12, 12:00 AM)30.30 "Hg (Jul 12, 12:00 AM)
Low57 °F (Jul 12, 2:30 AM)46% (Jul 15, 10:00 AM)29.80 "Hg (Jul 9, 1:00 AM)
Average63 °F71%30.09 "Hg
* Reported Jul 8 7:00 PM — Jul 23 7:00 PM, Kingston, Weather by CustomWeather, © 2016

Note: Actual official high and low records may vary slightly from our data, if they occured in-between our weather recording intervals... More about our weather records

Advertising

Kingston Weather History for the Previous 24 Hours

Scroll right to see more
 ConditionsComfort  
Time TempWeatherWind HumidityBarometerVisibility
7:00 PM
Sat, Jul 23
66 °FSprinkles. Passing clouds.15 mph88%29.92 "HgN/A
6:00 PM68 °FMostly cloudy.15 mph83%29.89 "HgN/A
5:30 PM68 °FOvercast.15 mph83%29.89 "HgN/A
5:00 PM68 °FPartly cloudy.15 mph83%29.89 "HgN/A
4:00 PM68 °FScattered clouds.17 mph78%29.86 "HgN/A
3:00 PM68 °FMostly cloudy.15 mph83%29.86 "HgN/A
2:30 PM68 °FMore clouds than sun.17 mph83%29.86 "HgN/A
2:00 PM70 °FBroken clouds.17 mph73%29.86 "HgN/A
1:30 PM68 °FPartly sunny.18 mph78%29.89 "HgN/A
1:00 PM70 °FScattered clouds.15 mph73%29.89 "HgN/A
12:30 PM70 °FBroken clouds.15 mph78%29.89 "HgN/A
11:54 AM68 °FBroken clouds.14 mph83%29.92 "HgN/A
11:00 AM70 °FScattered clouds.13 mph78%29.95 "HgN/A
10:30 AM70 °FScattered clouds.13 mph78%29.95 "HgN/A
10:00 AM70 °FSunny.12 mph73%29.95 "HgN/A
9:30 AM70 °FScattered clouds.15 mph73%29.95 "HgN/A
9:00 AM68 °FOvercast.14 mph78%29.98 "HgN/A
8:02 AM68 °FPartly sunny.10 mph83%29.95 "HgN/A
7:00 AM66 °FMostly cloudy.16 mph88%29.95 "HgN/A
6:30 AM66 °FMostly cloudy.14 mph88%29.95 "HgN/A
6:00 AM66 °FMore clouds than sun.15 mph88%29.95 "HgN/A
5:30 AM66 °FMostly cloudy.15 mph88%29.95 "HgN/A
5:00 AM66 °FOvercast.15 mph88%29.92 "HgN/A
4:30 AM66 °FOvercast.15 mph94%29.92 "HgN/A
4:00 AM66 °FMostly cloudy.13 mph88%29.92 "HgN/A
3:00 AM66 °FMostly cloudy.13 mph88%29.92 "HgN/A
2:00 AM66 °FSprinkles. Mostly cloudy.17 mph88%29.95 "Hg3 mi
1:00 AM66 °FSprinkles. Overcast.15 mph88%29.95 "HgN/A
12:00 AM68 °FMostly cloudy.16 mph83%29.95 "HgN/A
11:02 PM
Fri, Jul 22
68 °FMostly cloudy.14 mph83%29.98 "HgN/A
10:03 PM66 °FOvercast.13 mph88%29.95 "HgN/A
9:05 PM66 °FPassing clouds.15 mph88%29.95 "HgN/A
9:00 PM66 °FMostly cloudy.14 mph88%29.95 "HgN/A
8:00 PM66 °FOvercast.13 mph88%29.95 "HgN/A
Weather by CustomWeather, © 2016

See weather overviewHow to use our weather pages